[[{"header":{"parameterUnit":"m.s-1","parameterCategory":1,"la1":30.2991,"la2":30.254,"lo1":-89.0895,"lo2":-89.0444,"dy":0.0017,"dx":0.0017,"nx":28,"ny":28,"refTime":"2023-09-18T03:00:00:Z","depth":0,"parameterNumber":2,"parameterNumberName":"U-component_of_WINDS"},"data":[0,0,0,0,0,0,0,0,0,0,0,0,0,0,0,0,0,0,0,0,0,0,0,0,0,0,0,0,0,0,0,0,0,0,0,0,0,0,0,0,0,0,0,0,0,0,0,0,0,0,0,0,0,0,0,0,0,0,-0.2937,-0.2937,0,-0.2899,-0.2899,-0.2898,-0.2909,-0.2909,-0.291,-0.2911,-0.2869,-0.2867,-0.2865,0,0,0,0,0,0,0,0,0,0,0,0,0,-0.3016,-0.3015,-0.2937,-0.2937,-0.2936,-0.2899,-0.2899,-0.2898,-0.2908,-0.2909,-0.291,-0.2911,-0.2869,-0.2867,-0.2865,0,0,0,0,0,0,0,0,0,0,0,0,0,-0.298,-0.3014,-0.2937,-0.2937,-0.2937,-0.2899,-0.2899,-0.2898,-0.2908,-0.2909,-0.2911,-0.2912,-0.287,-0.2867,-0.2864,-0.2824,0,0,-0.2856,-0.2855,0,0,0,0,0,0,0,0,-0.2982,-0.2977,-0.2938,-0.2937,-0.2936,-0.291,-0.2911,-0.2873,-0.2908,-0.2919,-0.2911,-0.2912,-0.2881,-0.2878,-0.2868,-0.2822,-0.282,-0.2856,-0.2854,-0.2853,-0.2852,0,0,0,0,0,0,0,-0.2985,-0.2979,-0.2922,-0.2937,-0.2936,-0.2938,-0.2934,-0.2904,-0.2894,-0.2918,-0.2919,-0.2914,-0.2881,-0.287,-0.2867,-0.282,-0.2856,-0.2853,-0.2852,-0.2851,-0.2741,-0.274,0,0,0,0,0,0,-0.2988,-0.2981,-0.2923,-0.2921,-0.2963,-0.2936,-0.2931,-0.2917,-0.2894,-0.2892,-0.2913,-0.2915,-0.2875,-0.287,-0.2865,-0.2818,-0.2853,-0.285,-0.2849,-0.2742,-0.2741,-0.2739,0,0,0,0,0,0,-0.299,-0.2983,-0.2925,-0.2951,-0.2944,-0.2933,-0.2917,-0.2916,-0.2905,-0.2891,-0.2889,-0.2904,-0.2875,-0.2869,-0.2835,-0.2817,-0.2849,-0.2847,-0.2744,-0.2742,-0.274,-0.2723,0,0,0,0,0,0,-0.2992,-0.2983,-0.2969,-0.2951,-0.2943,-0.2896,-0.2916,-0.2914,-0.2901,-0.2903,-0.2882,-0.288,-0.2876,-0.2839,-0.2832,-0.2814,-0.2844,-0.2745,-0.2743,-0.2741,-0.2725,-0.272,-0.2717,0,0,0,0,0,-0.2995,-0.2964,-0.2968,-0.2961,-0.2924,-0.2895,-0.289,-0.2887,-0.2899,-0.2884,-0.2875,-0.288,-0.282,-0.2836,-0.2828,-0.2808,-0.2746,-0.2743,-0.2741,-0.2727,-0.2721,-0.2717,0,0,0,0,0,0,-0.2979,-0.2962,-0.2966,-0.2929,-0.2913,-0.2897,-0.2877,-0.2881,-0.2861,-0.2864,-0.286,-0.2855,-0.282,-0.281,-0.2828,-0.2769,-0.2785,-0.278,-0.2777,-0.2771,-0.2767,-0.2771,-0.2842,0,0,0,0,0,-0.2971,-0.295,-0.2936,-0.2904,-0.2896,-0.2888,-0.2875,-0.2875,-0.2858,-0.2851,-0.284,-0.2822,-0.28,-0.2785,-0.2763,-0.2723,-0.2719,-0.2706,-0.2702,-0.2698,-0.2695,-0.2674,-0.2669,-0.273,-0.273,-0.273,0,0,-0.2955,-0.2943,-0.2929,-0.2901,-0.2889,-0.2866,-0.2883,-0.2858,-0.2841,-0.2847,-0.2815,-0.2806,-0.2786,-0.275,-0.2733,-0.274,-0.2677,-0.2695,-0.2692,-0.2691,-0.2671,-0.2665,-0.266,-0.2728,-0.2728,-0.2729,0,0,-0.2914,-0.2902,-0.2876,-0.2864,-0.2846,-0.2841,-0.2834,-0.2817,-0.2812,-0.2779,-0.2784,-0.2763,-0.2724,-0.2711,-0.2699,-0.2654,-0.2658,-0.2646,-0.2625,-0.2605,-0.2601,-0.2596,-0.2581,-0.2576,-0.2643,-0.2642,-0.2642,0,-0.2895,-0.2863,-0.2861,-0.2836,-0.2824,-0.283,-0.2803,-0.2791,-0.2766,-0.2757,-0.2766,-0.2718,-0.2705,-0.2666,-0.2656,-0.2645,-0.2638,-0.2649,-0.2602,-0.2597,-0.2593,-0.2579,-0.2573,-0.2641,-0.2641,-0.2642,-0.2642,0,-0.2841,-0.2819,-0.2799,-0.2777,-0.2762,-0.2736,-0.273,-0.2715,-0.2716,-0.271,-0.2677,-0.2662,-0.2638,-0.2629,-0.2628,-0.259,-0.2595,-0.2603,-0.2619,-0.2586,-0.2573,-0.2567,-0.264,-0.264,-0.264,-0.2641,0,0,-0.2789,-0.2768,-0.2761,-0.2751,-0.2732,-0.2714,-0.2689,-0.2667,-0.2654,-0.2637,-0.2616,-0.2583,-0.259,-0.2577,-0.2575,-0.2557,-0.2524,-0.2567,-0.2567,-0.2561,-0.2482,-0.2477,-0.2471,-0.2527,-0.2525,-0.2525,-0.2484,0,-0.2748,-0.2705,-0.2703,-0.2663,-0.2642,-0.2647,-0.2625,-0.2611,-0.2604,-0.2585,-0.2578,-0.2555,-0.2566,-0.2558,-0.2541,-0.2532,-0.2508,-0.2534,-0.2507,-0.2506,-0.2513,-0.2464,-0.2459,-0.2421,-0.2479,-0.2478,-0.2477,0,-0.2694,-0.2677,-0.2635,-0.2621,-0.2612,-0.2592,-0.2572,-0.2554,-0.2538,-0.2534,-0.252,-0.2521,-0.2494,-0.2511,-0.2474,-0.2492,-0.2481,-0.2475,-0.2473,-0.2471,-0.249,-0.2462,-0.2409,-0.2404,-0.2469,-0.2469,-0.247,0,-0.2662,-0.2628,-0.26,-0.2591,-0.2573,-0.2559,-0.255,-0.2536,-0.2523,-0.2505,-0.2497,-0.2475,-0.2464,-0.2447,-0.2442,-0.2455,-0.2406,-0.2422,-0.2403,-0.2403,-0.2393,-0.2394,-0.2339,-0.2384,-0.2384,-0.2384,-0.2384,0,-0.2617,-0.2591,-0.2585,-0.2568,-0.254,-0.2537,-0.2509,-0.2502,-0.2488,-0.2469,-0.2472,-0.2453,-0.2447,-0.2428,-0.2424,-0.2395,-0.2389,-0.2386,-0.2385,-0.2386,-0.2387,-0.2379,-0.2382,-0.2382,-0.2383,-0.2383,-0.2383,0,-0.2577,-0.2572,-0.2541,-0.2527,-0.2522,-0.2502,-0.249,-0.2473,-0.2467,-0.2442,-0.2436,-0.2427,-0.2404,-0.2398,-0.237,-0.2367,-0.2334,-0.2335,-0.234,-0.234,-0.2322,-0.2324,-0.2261,-0.2253,-0.2301,-0.2301,-0.2301,0,-0.2549,-0.253,-0.2514,-0.2502,-0.2493,-0.2473,-0.2461,-0.2457,-0.2444,-0.2425,-0.241,-0.2388,-0.2371,-0.2334,-0.2324,-0.2303,-0.2304,-0.2284,-0.2301,-0.2304,-0.2306,-0.2308,-0.2306,-0.2281,-0.228,-0.228,-0.2279,0,-0.25,-0.2499,-0.2481,-0.2463,-0.2448,-0.2433,-0.2419,-0.2408,-0.2403,-0.2388,-0.2365,-0.2352,-0.2324,-0.2303,-0.2282,-0.2272,-0.2275,-0.2274,-0.2269,-0.227,-0.2275,-0.2273,-0.2332,-0.2276,-0.2276,-0.2276,-0.2277,-0.2277,-0.2467,-0.2451,-0.2437,-0.2418,-0.2407,-0.2393,-0.2377,-0.237,-0.2351,-0.233,-0.2328,-0.2305,-0.2289,-0.2262,-0.2251,-0.2232,-0.2238,-0.223,-0.2228,-0.2226,-0.2226,-0.2277,-0.2228,-0.2228,-0.2228,-0.2228,-0.2228,0,-0.242,-0.2411,-0.2393,-0.2374,-0.2359,-0.2363,-0.2348,-0.2334,-0.2314,-0.23,-0.2283,-0.2258,-0.2237,-0.2226,-0.2205,-0.2192,-0.2193,-0.2186,-0.2188,-0.2186,-0.2221,-0.2228,-0.2186,-0.2186,-0.2186,-0.2186,-0.2186,-0.2186,-0.2393,-0.2367,-0.2364,-0.2332,-0.2324,-0.2301,-0.2292,-0.228,-0.2269,-0.2241,-0.2224,-0.2218,-0.2205,-0.2183,-0.2164,-0.2162,-0.2154,-0.2148,-0.2146,-0.2179,-0.2183,-0.2187,-0.2194,-0.2146,-0.2146,-0.2113,-0.2112,-0.2112]},{"header":{"parameterUnit":"m.s-1","parameterCategory":1,"la1":30.2991,"la2":30.254,"lo1":-89.0895,"lo2":-89.0444,"dy":0.0017,"dx":0.0017,"nx":28,"ny":28,"refTime":"2023-09-18T03:00:00:Z","depth":0,"parameterNumber":3,"parameterNumberName":"V-component_of_WINDS"},"data":[0,0,0,0,0,0,0,0,0,0,0,0,0,0,0,0,0,0,0,0,0,0,0,0,0,0,0,0,0,0,0,0,0,0,0,0,0,0,0,0,0,0,0,0,0,0,0,0,0,0,0,0,0,0,0,0,0,0,2.1848,2.1846,0,2.1642,2.164,2.1638,2.1511,2.1511,2.151,2.151,2.1286,2.1281,2.1275,0,0,0,0,0,0,0,0,0,0,0,0,0,2.212,2.2115,2.1848,2.1846,2.1843,2.1643,2.164,2.1637,2.1512,2.1511,2.151,2.1509,2.1288,2.1281,2.1275,0,0,0,0,0,0,0,0,0,0,0,0,0,2.1966,2.2114,2.1849,2.1757,2.1746,2.1643,2.164,2.1636,2.1512,2.1511,2.151,2.1509,2.129,2.1282,2.1274,2.1242,0,0,2.1249,2.1246,0,0,0,0,0,0,0,0,2.1975,2.1956,2.1773,2.1763,2.1751,2.1602,2.1653,2.1504,2.1512,2.16,2.151,2.1509,2.1391,2.1374,2.1337,2.1232,2.1222,2.1249,2.1244,2.124,2.1238,0,0,0,0,0,0,0,2.1986,2.1965,2.1766,2.177,2.1757,2.1721,2.1699,2.1624,2.1503,2.1593,2.1583,2.1561,2.1385,2.1346,2.1331,2.1219,2.1249,2.1242,2.1237,2.1233,2.1074,2.1075,0,0,0,0,0,0,2.2013,2.1974,2.1773,2.176,2.1864,2.1717,2.1692,2.165,2.1503,2.148,2.1562,2.1556,2.136,2.1341,2.1323,2.1274,2.124,2.1233,2.1228,2.1073,2.1074,2.1075,0,0,0,0,0,0,2.2019,2.1996,2.1781,2.1865,2.1835,2.1714,2.1668,2.1647,2.1608,2.1481,2.1457,2.1545,2.1358,2.1334,2.1264,2.1264,2.1229,2.1222,2.1073,2.1074,2.1075,2.1178,0,0,0,0,0,0,2.2028,2.1999,2.1989,2.1866,2.1831,2.1729,2.1668,2.1644,2.1596,2.1586,2.1458,2.1436,2.1356,2.1276,2.1256,2.1253,2.1215,2.1072,2.1073,2.1074,2.1173,2.1182,2.1189,0,0,0,0,0,2.2038,2.2024,2.1989,2.1965,2.1816,2.173,2.1709,2.1621,2.1597,2.1583,2.1501,2.144,2.1269,2.127,2.1246,2.124,2.1071,2.1073,2.1074,2.117,2.118,2.1189,0,0,0,0,0,0,2.2146,2.2006,2.1966,2.1912,2.1835,2.1709,2.1689,2.1635,2.1559,2.1552,2.1441,2.1414,2.1353,2.129,2.1294,2.1201,2.1163,2.116,2.1244,2.1253,2.1261,2.1275,2.1209,0,0,0,0,0,2.2165,2.2111,2.1989,2.1953,2.1917,2.1811,2.1769,2.1709,2.1621,2.1586,2.1499,2.1414,2.134,2.1293,2.1219,2.1165,2.1133,2.1149,2.1157,2.1164,2.1161,2.1125,2.1129,2.1079,2.1079,2.1079,0,0,2.22,2.2117,2.2089,2.1973,2.1906,2.1848,2.1783,2.1725,2.1679,2.1576,2.1504,2.1438,2.1334,2.1272,2.124,2.1217,2.1168,2.1166,2.1172,2.1165,2.1126,2.1131,2.1136,2.108,2.108,2.108,0,0,2.2235,2.2169,2.2131,2.2066,2.1966,2.1895,2.1887,2.1769,2.1722,2.165,2.1571,2.1513,2.139,2.1319,2.1266,2.1277,2.1216,2.1255,2.1294,2.126,2.1264,2.1267,2.1267,2.1269,2.1253,2.1254,2.1254,0,2.2291,2.2205,2.2117,2.2064,2.2013,2.1923,2.1881,2.182,2.1699,2.1665,2.1643,2.1486,2.141,2.1328,2.1331,2.1293,2.1275,2.1267,2.1272,2.1274,2.1275,2.1273,2.1274,2.1259,2.1258,2.1258,2.1257,0,2.2276,2.2218,2.2198,2.2089,2.2036,2.1989,2.189,2.1848,2.1792,2.1723,2.1648,2.1555,2.1459,2.1436,2.1379,2.1345,2.1334,2.1294,2.1252,2.1286,2.1283,2.1282,2.1266,2.1264,2.1263,2.1261,0,0,2.237,2.2215,2.2209,2.2157,2.2041,2.1992,2.1939,2.185,2.1814,2.1734,2.1684,2.1583,2.1545,2.1486,2.142,2.1391,2.1401,2.1353,2.1349,2.1362,2.1354,2.1383,2.1384,2.1363,2.1362,2.1362,2.1361,0,2.2385,2.229,2.221,2.2143,2.2086,2.1999,2.1953,2.1874,2.1809,2.1747,2.1672,2.1601,2.1558,2.1522,2.149,2.1407,2.1397,2.1406,2.131,2.1307,2.1335,2.1383,2.1412,2.1417,2.136,2.136,2.136,0,2.2389,2.2317,2.2246,2.2135,2.2108,2.2068,2.1979,2.1923,2.1831,2.1785,2.1721,2.1653,2.1589,2.1559,2.1466,2.1474,2.143,2.1384,2.1382,2.1366,2.1333,2.1364,2.1416,2.1416,2.1357,2.1357,2.1358,0,2.2461,2.2346,2.2287,2.2246,2.2117,2.209,2.2034,2.1942,2.1893,2.1815,2.1781,2.1695,2.1646,2.1579,2.1488,2.1475,2.1404,2.1366,2.136,2.1362,2.1345,2.1347,2.1387,2.1324,2.1324,2.1324,2.1324,0,2.2483,2.2442,2.2318,2.2282,2.2232,2.2139,2.2091,2.2027,2.1946,2.1892,2.1812,2.1762,2.1648,2.1584,2.1512,2.1445,2.1424,2.1381,2.1362,2.1387,2.1392,2.1353,2.1349,2.1324,2.1324,2.1324,2.1324,0,2.2553,2.2469,2.2399,2.2284,2.2254,2.2222,2.212,2.208,2.2011,2.1944,2.1923,2.1813,2.1733,2.1638,2.1526,2.1478,2.1416,2.1389,2.1448,2.1436,2.1434,2.1434,2.1447,2.1443,2.1388,2.1388,2.1389,0,2.2571,2.2538,2.242,2.2381,2.2329,2.2266,2.2217,2.2124,2.2075,2.1969,2.194,2.1856,2.1783,2.1659,2.1565,2.1479,2.1447,2.1458,2.1433,2.1458,2.1443,2.1445,2.1439,2.1463,2.1464,2.1465,2.1466,0,2.2611,2.2572,2.2506,2.2427,2.2371,2.2303,2.223,2.2202,2.2093,2.2042,2.1962,2.1906,2.1794,2.1709,2.1611,2.1548,2.1487,2.1476,2.1469,2.1491,2.1525,2.1503,2.1462,2.1474,2.1473,2.1473,2.1472,2.1472,2.2652,2.2618,2.2531,2.246,2.2397,2.2331,2.2288,2.2215,2.2148,2.2053,2.2001,2.1922,2.1828,2.1692,2.1631,2.1564,2.1543,2.1534,2.1531,2.1529,2.1535,2.154,2.1547,2.1546,2.1546,2.1545,2.1545,0,2.2685,2.2626,2.2562,2.2465,2.2409,2.2364,2.2281,2.2235,2.2168,2.2089,2.202,2.1927,2.1844,2.1747,2.1657,2.1622,2.1592,2.1601,2.1601,2.1586,2.1561,2.1574,2.1627,2.1627,2.1627,2.1627,2.1627,2.1627,2.2696,2.2635,2.2585,2.2491,2.243,2.2355,2.2312,2.2249,2.2186,2.2087,2.202,2.1959,2.1871,2.1774,2.1695,2.1668,2.1637,2.1654,2.1619,2.1596,2.1589,2.1582,2.1594,2.1649,2.165,2.1649,2.1649,2.1649]}]]